Flag for Germany Weather past 2 weeks in Fellbach, Baden-Württemberg, Germany

Now
37 °F

Light rain. Partly cloudy.


Feels Like: 31 °F
Forecast: 29 / 49 °F
Wind: 8 mph from Southwest

Location: Stuttgart-Echterdingen

Current Time: Apr 2, 2015 at 6:36:26 AM

Latest Report: Apr 2, 2015 at 5:50 AM


Visibility: N/A

Pressure: 30.01 "Hg

Humidity: 87%

Dew point: 34 °F

Location of FellbachLocation

Historic Weather in Fellbach — Graph

°F

Fellbach temperature yesterday

Maximum temperature yesterday: 45 °F (at 2:20 PM)
Minimum temperature yesterday: 36 °F (at 3:20 AM)
Average temperature yesterday: 40 °F

Past Weeks' High & Low Weather Summary

 TemperatureHumidityPressure
High63 °F (Mar 18, 3:20 PM)100% (Mar 19, 6:20 AM)30.36 "Hg (Mar 19, 6:20 AM)
Low30 °F (Mar 24, 4:50 AM)29% (Mar 20, 4:20 PM)29.56 "Hg (Mar 25, 1:50 PM)
Average45 °F71%29.95 "Hg
* Reported Mar 18 4:20 AM — Apr 2 5:50 AM, Fellbach, Weather by CustomWeather, © 2015

Note: Actual official high and low records may vary slightly from our data, if they occured in-between our weather recording intervals... More about our weather records

Advertising

Fellbach weather history for previous 24 hours

 ConditionsComfort  
Time TempWeatherWind HumidityBarometerVisibility
5:50 AM
Thu, Apr 2
37 °FLight rain. Partly cloudy.8 mph87%30.01 "HgN/A
5:20 AM37 °FLight rain. Passing clouds.12 mph87%30.04 "HgN/A
4:50 AM39 °FLight rain. Partly cloudy.13 mph81%30.04 "HgN/A
4:20 AM39 °FLight rain. Partly cloudy.12 mph75%30.07 "HgN/A
3:50 AM39 °FPartly cloudy.12 mph75%30.07 "HgN/A
3:20 AM39 °FPartly cloudy.12 mph75%30.09 "HgN/A
2:50 AM39 °FLight rain. Passing clouds.12 mph81%30.09 "HgN/A
2:20 AM39 °FLight rain. Passing clouds.10 mph81%30.12 "HgN/A
1:50 AM39 °FPartly cloudy.15 mph75%30.12 "HgN/A
1:20 AM39 °FPassing clouds.14 mph75%30.12 "HgN/A
12:50 AM39 °FPassing clouds.13 mph75%30.15 "HgN/A
12:20 AM39 °FPassing clouds.12 mph75%30.15 "HgN/A
11:50 PM
Wed, Apr 1
39 °FLight rain. Passing clouds.16 mph75%30.15 "HgN/A
11:20 PM39 °FPassing clouds.12 mph70%30.18 "HgN/A
10:50 PM39 °FPassing clouds.13 mph70%30.18 "HgN/A
10:20 PM39 °FPassing clouds.12 mph70%30.18 "HgN/A
9:50 PM39 °FPassing clouds.9 mph75%30.18 "HgN/A
9:20 PM39 °FPassing clouds.8 mph70%30.18 "HgN/A
8:50 PM39 °FSunny.12 mph70%30.18 "Hg10 mi
8:20 PM39 °FScattered clouds.15 mph75%30.15 "HgN/A
7:50 PM39 °FScattered clouds.16 mph75%30.15 "HgN/A
7:20 PM39 °FRain showers. Scattered clouds.30 mph75%30.15 "HgN/A
6:50 PM41 °FScattered clouds.20 mph61%30.12 "HgN/A
6:20 PM41 °FPassing clouds.25 mph66%30.12 "HgN/A
5:50 PM45 °FPassing clouds.22 mph53%30.12 "HgN/A
5:20 PM43 °FSprinkles. Scattered clouds.26 mph61%30.12 "HgN/A
4:50 PM43 °FScattered showers. Scattered clouds.24 mph66%30.12 "HgN/A
4:20 PM43 °FScattered clouds.25 mph66%30.12 "HgN/A
3:50 PM41 °FScattered clouds.18 mph81%30.12 "HgN/A
3:20 PM41 °FSprinkles. Partly sunny.28 mph76%30.12 "HgN/A
2:50 PM43 °FScattered showers. Scattered clouds.32 mph61%30.12 "HgN/A
2:20 PM45 °FScattered showers. Scattered clouds.28 mph57%30.12 "HgN/A
1:50 PM43 °FPassing clouds.26 mph71%30.12 "HgN/A
1:20 PM39 °FSprinkles. Scattered clouds.24 mph81%30.12 "HgN/A
12:50 PM43 °FSprinkles. Scattered clouds.25 mph57%30.12 "HgN/A
12:20 PM41 °FScattered clouds.28 mph57%30.12 "HgN/A
11:50 AM43 °FScattered clouds.24 mph53%30.12 "HgN/A
11:20 AM41 °FPassing clouds.25 mph61%30.12 "HgN/A
10:50 AM43 °FScattered clouds.28 mph57%30.09 "HgN/A
10:20 AM41 °FScattered clouds.26 mph57%30.09 "HgN/A
9:50 AM39 °FScattered clouds.25 mph65%30.09 "HgN/A
9:20 AM39 °FScattered clouds.26 mph65%30.07 "HgN/A
8:50 AM37 °FScattered clouds.26 mph70%30.07 "HgN/A
8:20 AM36 °FPassing clouds.24 mph81%30.04 "HgN/A
7:50 AM36 °FSnow. Passing clouds.29 mph81%30.01 "HgN/A
7:20 AM37 °FPassing clouds.25 mph81%30.01 "HgN/A
6:50 AM37 °FPassing clouds.24 mph81%30.01 "HgN/A
6:20 AM37 °FSprinkles. Partly cloudy.22 mph81%29.98 "HgN/A
Weather by CustomWeather, © 2015

See weather overviewHow to use our weather pages